Lexington Weather

Lexington, Massachusetts, USA

44°F
4/22/2024 9:16am 
  • Lexington Conditions: Clear
  • Temperature: 44.2°F / 6.8°CWarmer 3.2°F than last hour.
  • Dew Point: 26.8°FDecreased 1.4°Fsince last hour.
  • Relative Humidity: 50%Decreased 10.0% since last hour.
  • Wind: Calm, 10-min avg: Calm, gust: None
  • Barometer: 29.96 in Steady
  • Visibility: 10 miles
  • Rain Today: 0.00 in
  •   

Regional Weather Roundup
for Boston, MA

        
000
ASUS41 KBOX 182310
RWRBOX

REGIONAL WEATHER ROUNDUP
NATIONAL WEATHER SERVICE BOSTON/NORTON MA
700 PM EDT THU APR 18 2024

NOTE:  "FAIR" INDICATES FEW OR NO CLOUDS BELOW 12,000 FEET WITH NO 
SIGNIFICANT WEATHER AND/OR OBSTRUCTIONS TO VISIBILITY.

MAZALL-190000-
EASTERN MASSACHUSETTS
  
CITY           SKY/WX    TMP DP  RH WIND       PRES   REMARKS
BOSTON         LGT RAIN  45  41  86 NE8       30.20S                  
BEVERLY        CLOUDY    44  41  89 N5        30.19S                  
LAWRENCE       CLOUDY    44  41  89 NE5       30.22S                  
BEDFORD        LGT RAIN  44  41  89 NE7       30.19R                  
NORWOOD        LGT RAIN  46  39  76 NE3       30.19S                  
MARSHFIELD     CLOUDY    45  43  93 NE6       30.18S                  
PLYMOUTH       CLOUDY    44  41  89 NE7       30.16S                  
TAUNTON        LGT RAIN  46  41  82 N5        30.18S                  
NEW BEDFORD    LGT RAIN  45  43  93 NE5       30.16S                  
$$

MAZALL-190000-
CAPE COD AND THE ISLANDS
  
CITY           SKY/WX    TMP DP  RH WIND       PRES   REMARKS
FALMOUTH       CLOUDY    45  41  87 NE12      30.16S                  
HYANNIS        LGT RAIN  46  36  68 NE6       30.15R                  
CHATHAM        CLOUDY    46  39  76 NE9       30.16S                  
PROVINCETOWN   LGT RAIN  45  42  89 E7        30.18S                  
NANTUCKET      CLOUDY    45  40  82 NE12      30.14R                  
MARTHAS VNYRD  CLOUDY    47  40  76 NE14G23   30.15R                  
$$
 
MAZALL-190000-
CENTRAL AND WESTERN MASSACHUSETTS
  
CITY           SKY/WX    TMP DP  RH WIND       PRES   REMARKS
WORCESTER      CLOUDY    41  37  86 NE5       30.17R                  
FITCHBURG      CLOUDY    45  39  79 CALM      30.21R                  
ORANGE         CLOUDY    45  37  73 E7        30.17F                  
SPRINGFIELD    MOCLDY    45  38  77 N9        30.14F                  
WESTFIELD      CLOUDY    46  38  73 N8        30.18S                  
NORTH ADAMS    CLOUDY    46  38  73 E12G21    30.16R                  
PITTSFIELD     CLOUDY    43  33  68 VRB7      30.14R                  
$$
 
RIZALL-190000-
RHODE ISLAND
  
CITY           SKY/WX    TMP DP  RH WIND       PRES   REMARKS
PROVIDENCE     LGT RAIN  44  41  89 NE10      30.18R                  
NEWPORT        LGT RAIN  43  40  89 NE7       30.15S                  
BLOCK ISLAND   LGT RAIN  44  40  85 NE8       30.15R                  
SMITHFIELD     LGT RAIN  42  42 100 E6        30.17S                  
WESTERLY       LGT RAIN  44  40  85 N6        30.15S FOG              
$$
 
CTZALL-190000-
CONNECTICUT
  
CITY           SKY/WX    TMP DP  RH WIND       PRES   REMARKS
BRADLEY INTL   MOCLDY    48  38  68 NE9       30.16F                  
HARTFORD       MOCLDY    46  40  79 NE7       30.16F                  
PLAINVILLE     CLOUDY    45  41  86 N8        30.17R                  
BRIDGEPORT     CLOUDY    47  39  74 NE10      30.15R                  
DANBURY        CLOUDY    46  39  76 VRB5      30.17R                  
GROTON         LGT RAIN  45  43  93 N8        30.17R                  
NEW HAVEN      CLOUDY    48  41  76 N9        30.16S                  
CHESTER        MOCLDY    45  43  93 NE9       30.13F                  
MERIDEN        CLOUDY    45  38  76 VRB6      30.17R                  
WILLIMANTIC    CLOUDY    44  41  89 NE9       30.16F                  
OXFORD         CLOUDY    42  39  89 VRB6      30.16R                  
$$

MEZ002-015-021-024-NHZ003-005-008-011-012-014-VTZ005-008-190000-
NORTHERN NEW ENGLAND
  
CITY           SKY/WX    TMP DP  RH WIND       PRES   REMARKS
PORTLAND ME    MOCLDY    46  36  68 S3        30.21S                  
BANGOR ME      PTCLDY    52  34  50 S14       30.17S                  
CONCORD NH     CLOUDY    44  41  89 CALM      30.20F                  
MANCHESTER NH  CLOUDY    45  40  82 NE3       30.19S                  
NASHUA NH      CLOUDY    45  45 100 NE5       30.21S                  
PORTSMOUTH NH  LGT RAIN  46  41  84 CALM      30.19F                  
JAFFREY NH     CLOUDY    44  39  82 CALM      30.17F                  
KEENE NH       LGT RAIN  44  41  89 CALM      30.17F                  
BURLINGTON VT  CLOUDY    45  42  89 SE8       30.13S                  
MT. WASHINGTON SNOW      32  32 100 W14         N/A  VSB 1/16WCI  22  
$$

NYZ052-076-190000-
EASTERN NEW YORK
  
CITY           SKY/WX    TMP DP  RH WIND       PRES   REMARKS
ALBANY         CLOUDY    48  37  65 S8        30.17S                  
NEW YORK CITY  CLOUDY    47  36  65 NE17G26   30.16R                  
$$
 
ANZALL-190000-
MARINE OBSERVATIONS
  
STATION/POSITION TIME  TEMP    WIND        PRES    VSBY  WAVE
                       AIR SEA DIR/SP/G                  HT/PER
                 (UTC) (F)     (DEG/KT/KT) (MB)    (MI)  (FT/S)
BOSTON BUOY      2250   44      30/  8/  8 1022.0S         2/10
BUZZARDS BAY     2200   46      30/ 15/ 16 1021.1R
NANTUCKET SOUND  2250   46 47   60/ 14/ 16 1020.7R         3/ 4
MASS BAY-STELLWA 2104   45 45   50/  8/ 10 1022.8R  1 7/8  2/ 4
ISLE OF SHOALS   2200   44      50/  6/  6 1022.2F
S OF BLOCK IS    2226      44                N/A           6/ 7
$$

......................KEY.........................
  SKY/WX - SKY CONDITION/PRESENT WEATHER
  TMP    - TEMPERATURE IN FAHRENHEIT
  DWPT   - DEWPOINT IN FAHRENHEIT
  RH     - RELATIVE HUMIDITY IN PERCENT
  WIND   - DIRECTION AND SPEED IN MPH
  PRES   - MEAN SEA LEVEL PRESSURE IN INCHES OF HG
  WCI    - WIND CHILL INDEX
  VSB    - VISIBILITY IN MILES
  HX     - HEAT INDEX
  TC     - TEMPERATURE IN CELSIUS
  VRB    - VARIABLE WIND DIRECTION
  N/A    - NOT AVAILABLE
  
      

Other recent Regional Weather Roundups

Mon Apr 22, 9:10am EDT

Mon Apr 22, 8:10am EDT

Mon Apr 22, 7:10am EDT

Mon Apr 22, 6:10am EDT

Mon Apr 22, 5:10am EDT

Mon Apr 22, 4:10am EDT

Mon Apr 22, 3:10am EDT

Mon Apr 22, 2:10am EDT

Mon Apr 22, 1:10am EDT

Mon Apr 22, 12:10am EDT

Sun Apr 21, 11:10pm EDT

Sun Apr 21, 10:10pm EDT

Sun Apr 21, 9:10pm EDT

Sun Apr 21, 8:10pm EDT

Sun Apr 21, 7:10pm EDT

Sun Apr 21, 6:10pm EDT

Sun Apr 21, 5:10pm EDT

Sun Apr 21, 4:10pm EDT

Sun Apr 21, 3:10pm EDT

Sun Apr 21, 2:10pm EDT

Sun Apr 21, 1:10pm EDT

Sun Apr 21, 12:10pm EDT

Sun Apr 21, 11:10am EDT

Sun Apr 21, 10:10am EDT

Sun Apr 21, 9:10am EDT

Sun Apr 21, 8:10am EDT

Sun Apr 21, 7:10am EDT

Sun Apr 21, 6:10am EDT

Sun Apr 21, 5:10am EDT

Sun Apr 21, 4:10am EDT

Sun Apr 21, 3:10am EDT

Sun Apr 21, 2:10am EDT

Sun Apr 21, 1:10am EDT

Sun Apr 21, 12:10am EDT

Sat Apr 20, 11:10pm EDT

Sat Apr 20, 10:10pm EDT

Sat Apr 20, 9:10pm EDT

Sat Apr 20, 8:10pm EDT

Sat Apr 20, 7:10pm EDT

Sat Apr 20, 6:10pm EDT

Sat Apr 20, 5:10pm EDT

Sat Apr 20, 4:10pm EDT

Sat Apr 20, 3:10pm EDT

Sat Apr 20, 2:10pm EDT

Sat Apr 20, 1:10pm EDT

Sat Apr 20, 12:10pm EDT

Sat Apr 20, 11:10am EDT

Sat Apr 20, 10:10am EDT

Sat Apr 20, 9:10am EDT

Sat Apr 20, 8:10am EDT

Sat Apr 20, 7:10am EDT

Sat Apr 20, 6:10am EDT

Sat Apr 20, 5:10am EDT

Sat Apr 20, 4:10am EDT

Sat Apr 20, 3:10am EDT

Sat Apr 20, 2:10am EDT

Sat Apr 20, 1:10am EDT

Sat Apr 20, 12:10am EDT

Fri Apr 19, 11:10pm EDT

Fri Apr 19, 10:10pm EDT

Fri Apr 19, 9:10pm EDT

Fri Apr 19, 8:10pm EDT

Fri Apr 19, 7:10pm EDT

Fri Apr 19, 6:10pm EDT

Fri Apr 19, 5:10pm EDT

Fri Apr 19, 4:10pm EDT

Fri Apr 19, 3:10pm EDT

Fri Apr 19, 2:10pm EDT

Fri Apr 19, 1:10pm EDT

Fri Apr 19, 12:10pm EDT

Fri Apr 19, 11:10am EDT

Fri Apr 19, 10:10am EDT

Fri Apr 19, 9:10am EDT

Fri Apr 19, 8:10am EDT

Fri Apr 19, 7:10am EDT

Fri Apr 19, 6:10am EDT

Fri Apr 19, 5:10am EDT

Fri Apr 19, 4:10am EDT

Fri Apr 19, 3:10am EDT

Fri Apr 19, 2:10am EDT

Fri Apr 19, 1:10am EDT

Fri Apr 19, 12:10am EDT

Thu Apr 18, 11:10pm EDT

Thu Apr 18, 10:10pm EDT

Thu Apr 18, 9:10pm EDT

Thu Apr 18, 8:10pm EDT

Thu Apr 18, 6:10pm EDT

Thu Apr 18, 5:10pm EDT

Thu Apr 18, 4:10pm EDT

Thu Apr 18, 3:10pm EDT

Thu Apr 18, 2:10pm EDT

Thu Apr 18, 1:10pm EDT

Thu Apr 18, 12:10pm EDT

Thu Apr 18, 11:10am EDT

Thu Apr 18, 10:10am EDT

Thu Apr 18, 9:10am EDT

Thu Apr 18, 8:10am EDT

Thu Apr 18, 7:10am EDT

Thu Apr 18, 6:10am EDT

Thu Apr 18, 5:10am EDT

Thu Apr 18, 4:10am EDT

Thu Apr 18, 3:10am EDT

Thu Apr 18, 2:10am EDT

Thu Apr 18, 1:10am EDT

Thu Apr 18, 12:10am EDT

Wed Apr 17, 11:10pm EDT

Wed Apr 17, 10:10pm EDT

Wed Apr 17, 9:10pm EDT

Wed Apr 17, 8:10pm EDT

Wed Apr 17, 7:10pm EDT

Wed Apr 17, 6:10pm EDT

Wed Apr 17, 5:10pm EDT

Wed Apr 17, 4:10pm EDT

Wed Apr 17, 3:10pm EDT

Wed Apr 17, 2:10pm EDT

Wed Apr 17, 1:10pm EDT

Wed Apr 17, 12:10pm EDT

Wed Apr 17, 11:10am EDT

Wed Apr 17, 10:10am EDT

Wed Apr 17, 9:10am EDT

Wed Apr 17, 8:10am EDT

Wed Apr 17, 7:10am EDT

Wed Apr 17, 6:10am EDT

Wed Apr 17, 5:10am EDT

Wed Apr 17, 4:10am EDT

Wed Apr 17, 3:10am EDT

Wed Apr 17, 2:10am EDT

Wed Apr 17, 1:10am EDT

Wed Apr 17, 12:10am EDT

Tue Apr 16, 11:10pm EDT

Tue Apr 16, 10:10pm EDT

Tue Apr 16, 9:10pm EDT

Tue Apr 16, 8:10pm EDT

Tue Apr 16, 7:10pm EDT

Tue Apr 16, 6:10pm EDT

Tue Apr 16, 5:10pm EDT

Tue Apr 16, 4:10pm EDT

Tue Apr 16, 3:10pm EDT

Tue Apr 16, 2:10pm EDT

Tue Apr 16, 1:10pm EDT

Tue Apr 16, 12:10pm EDT

Tue Apr 16, 11:10am EDT

Tue Apr 16, 10:10am EDT

Tue Apr 16, 9:10am EDT

Tue Apr 16, 8:10am EDT

Tue Apr 16, 7:10am EDT

Tue Apr 16, 6:10am EDT

Tue Apr 16, 5:10am EDT

Tue Apr 16, 4:10am EDT

Tue Apr 16, 3:10am EDT

Tue Apr 16, 2:10am EDT

Tue Apr 16, 1:10am EDT

Tue Apr 16, 12:10am EDT

Mon Apr 15, 11:10pm EDT

Mon Apr 15, 10:10pm EDT

Mon Apr 15, 9:10pm EDT

Mon Apr 15, 8:10pm EDT

Mon Apr 15, 7:10pm EDT

Mon Apr 15, 6:10pm EDT

Mon Apr 15, 5:10pm EDT

Mon Apr 15, 4:10pm EDT

Mon Apr 15, 3:10pm EDT

Mon Apr 15, 2:10pm EDT

Mon Apr 15, 1:10pm EDT

Mon Apr 15, 12:10pm EDT

Mon Apr 15, 11:10am EDT

Mon Apr 15, 10:10am EDT